#timestamp,LO_Frequency,Hit 
1505361615.5,286046987.6,P
1505361635.4,286046990.0,P
1505361655.2,286047002.5,N
1505361675.0,286047002.7,N
1505361675.9,286047002.7,N
1505361695.8,286046999.8,N
1505361715.6,286047004.3,N
1505361735.4,286047003.3,N
1505361755.2,286047003.6,N
1505361775.1,286047002.7,N
1505361776.0,286047002.7,N
1505361795.8,286047001.1,N
1505361815.6,286046999.2,N
1505361835.5,286046993.4,N
1505361855.3,286046995.9,N
1505361875.1,286046995.5,N
1505361895.9,286047000.8,N
1505361915.7,286047001.4,N
1505361935.5,286047004.4,N
1505361955.4,286047001.0,N
1505361975.2,286046996.5,N
1505361995.0,286047000.2,N
1505361995.9,286047000.2,N
1505362015.8,286047005.5,N
1505362035.6,286047009.1,N
1505362055.4,286047012.2,N
1505362075.3,286047017.0,P
1505362095.1,286047018.2,N
1505362096.0,286047018.2,N
1505362115.8,286047015.8,N
1505362135.7,286047020.7,P
1505362155.5,286047007.3,N
1505362175.3,286047004.9,N
1505362195.2,286047004.8,N
1505362215.9,286047008.2,N
1505362235.7,286047012.0,N
1505362255.6,286047011.7,N
1505362275.4,286047012.3,N
1505362295.2,286047011.8,N
1505362315.1,286047016.4,P
1505362316.0,286047016.4,P
1505362335.8,286047006.8,N
1505362355.6,286047008.2,N
1505362375.5,286047010.0,N
1505362395.3,286047006.7,N
1505362415.1,286047004.6,N
1505362435.9,286047008.9,N
1505362455.7,286047006.2,N
1505362475.5,286047006.1,N
1505362495.4,286047014.0,P
1505362515.2,286047000.7,N
1505362535.0,286046999.9,N
1505362535.9,286046999.9,N
1505362555.8,286047002.1,N
1505362575.6,286047001.8,N
1505362595.4,286046999.7,N
1505362615.2,286047002.8,N
1505362635.1,286047000.2,N
1505362636.0,286047000.2,N
1505362655.8,286046996.6,N
1505362675.6,286046997.9,N
1505362695.5,286046998.9,N
1505362715.3,286046997.4,N
1505362735.1,286046999.0,N
1505362755.9,286046997.5,N
1505362775.7,286046999.2,N
1505362795.5,286046996.7,N
1505362815.4,286046998.9,N
1505362835.2,286046999.6,N
1505362855.0,286047000.1,N
1505362855.9,286047000.1,N
1505362875.8,286047002.3,N
1505362895.6,286047001.0,N
1505362915.4,286046995.3,N
1505362935.2,286046990.7,N
1505362955.1,286046987.7,P
1505362956.0,286046987.7,N
1505362975.8,286046985.6,N
1505362995.7,286046986.3,N
1505363015.5,286046984.7,N
1505363035.3,286046982.7,P
1505363055.2,286046992.2,N
1505363075.9,286046996.3,N
1505363095.7,286046992.0,N
1505363115.6,286046990.2,N
1505363135.4,286046991.1,N
1505363155.2,286046987.5,P
1505363175.1,286046996.0,N
1505363176.0,286046996.0,N
1505363195.8,286046995.6,N
1505363215.6,286046995.4,N
1505363235.5,286046993.9,N
1505363255.3,286046993.9,N
1505363275.1,286046995.6,N
1505363295.8,286046994.2,N
1505363315.7,286046992.7,N
1505363335.5,286046988.6,P
1505363355.4,286046993.8,N
1505363375.2,286046996.1,N
1505363395.0,286046992.1,N
1505363395.9,286046992.1,P
1505363415.8,286047000.4,N
1505363435.6,286047002.4,N
1505363455.4,286047004.0,N
1505363475.3,286047001.6,N
1505363495.1,286047001.7,N
1505363496.0,286047001.7,N
1505363515.8,286047004.2,N
1505363535.7,286047003.2,N
1505363555.5,286047000.0,N
1505363575.3,286047000.9,N
1505363595.1,286046998.8,N
1505363615.9,286046998.3,N
1505363635.7,286047001.8,N
1505363655.5,286047004.9,N
1505363675.4,286047005.6,N
1505363695.2,286047003.3,N
1505363715.0,286047005.6,N
1505363715.9,286047005.6,N
1505363735.8,286046997.3,N
1505363755.6,286046993.7,N
1505363775.4,286046992.3,N
1505363795.3,286046996.4,N
1505363815.1,286046998.0,N
1505363816.0,286046998.0,N
1505363835.8,286046997.2,N
1505363855.7,286046998.4,N
1505363875.5,286047002.0,N
1505363895.3,286046999.7,N
1505363915.1,286046999.8,N
1505363935.9,286047002.7,N
1505363955.7,286046997.3,N
1505363975.5,286046999.7,N
1505363995.4,286047002.9,N
1505364015.2,286047006.4,N
1505364035.0,286047011.1,P
1505364035.9,286047011.1,N
1505364055.8,286047017.1,P
1505364075.6,286047018.9,P
1505364095.5,286047011.3,N
1505364115.3,286047015.3,P
1505364135.1,286047010.1,N
1505364155.9,286047011.6,P
1505364175.7,286046996.5,P
1505364195.5,286046999.6,N
1505364215.3,286046999.0,N
1505364235.2,286046998.3,N
1505364255.0,286047006.0,N
1505364255.9,286047006.0,N
1505364275.7,286047005.1,N
1505364295.6,286047006.6,N
1505364315.4,286047006.4,N
1505364335.2,286047007.2,N
1505364355.1,286047006.2,N
1505364356.0,286047006.2,N
1505364375.8,286047006.3,N
1505364395.6,286047007.5,N
1505364415.5,286047004.7,N
1505364435.3,286047008.6,N
1505364455.1,286047013.4,P
1505364475.9,286047008.4,N
1505364495.7,286047002.9,N
1505364515.5,286047005.4,N
1505364535.4,286047003.4,N
1505364555.2,286047005.1,N
1505364575.0,286047004.0,N
1505364575.9,286047004.0,N
1505364595.8,286047005.0,N
1505364615.6,286047005.1,N
1505364635.4,286047001.3,N
1505364655.3,286047005.2,N
1505364675.1,286047005.1,N
1505364676.0,286047005.1,N
1505364695.8,286047004.9,N
1505364715.7,286047012.1,P
1505364735.5,286047008.8,N
1505364755.3,286047008.3,N
1505364775.2,286047008.3,P
1505364795.9,286047000.2,N
1505364815.7,286046999.1,N
1505364835.6,286046999.3,N
1505364855.4,286046998.3,N
1505364875.2,286046994.1,N
1505364895.1,286046991.6,N
1505364896.0,286046991.6,N
1505364915.8,286046985.4,N
1505364935.6,286046986.1,N
1505364955.5,286046982.6,N
1505364975.3,286046982.9,N
1505364995.1,286046982.4,N
1505365015.8,286046982.2,N
1505365035.7,286046979.3,N
1505365055.5,286046981.3,N
1505365075.3,286046978.3,N
1505365095.2,286046974.6,N
1505365115.9,286046976.6,N
1505365135.7,286046976.2,N
1505365155.6,286046977.1,N
1505365175.4,286046973.2,N
1505365195.2,286046975.2,N
